[[{"header":{"parameterUnit":"m.s-1","parameterCategory":1,"la1":30.2991,"la2":30.254,"lo1":-89.0895,"lo2":-89.0444,"dy":0.0017,"dx":0.0017,"nx":28,"ny":28,"refTime":"2023-07-25T03:00:00:Z","depth":0,"parameterNumber":2,"parameterNumberName":"U-component_of_WINDS"},"data":[0,0,0,0,0,0,0,0,0,0,0,0,0,0,0,0,0,0,0,0,0,0,0,0,0,0,0,0,0,0,0,0,0,0,0,0,0,0,0,0,0,0,0,0,0,0,0,0,0,0,0,0,0,0,0,0,0,0,0.7983,0.7983,0,0.8009,0.8009,0.801,0.8015,0.8015,0.8015,0.8014,0.804,0.8041,0.8042,0,0,0,0,0,0,0,0,0,0,0,0,0,0.7935,0.7936,0.7983,0.7983,0.7983,0.8009,0.8009,0.801,0.8015,0.8015,0.8015,0.8014,0.804,0.8041,0.8042,0,0,0,0,0,0,0,0,0,0,0,0,0,0.7958,0.7936,0.7983,0.7989,0.799,0.8009,0.8009,0.801,0.8015,0.8015,0.8014,0.8014,0.8039,0.8041,0.8042,0.8056,0,0,0.8046,0.8046,0,0,0,0,0,0,0,0,0.7956,0.7959,0.7988,0.7989,0.799,0.8008,0.8002,0.8025,0.8015,0.8005,0.8014,0.8014,0.803,0.8032,0.8037,0.8057,0.8058,0.8046,0.8047,0.8047,0.8048,0,0,0,0,0,0,0,0.7955,0.7958,0.7993,0.7988,0.7989,0.799,0.7993,0.8006,0.8019,0.8006,0.8007,0.801,0.803,0.8036,0.8038,0.8058,0.8046,0.8047,0.8048,0.8048,0.8089,0.809,0,0,0,0,0,0,0.7952,0.7957,0.7992,0.7994,0.7972,0.7991,0.7994,0.8003,0.8019,0.8021,0.801,0.801,0.8034,0.8036,0.8039,0.8055,0.8047,0.8048,0.8049,0.8089,0.809,0.809,0,0,0,0,0,0,0.7951,0.7955,0.7991,0.7976,0.798,0.7992,0.8002,0.8003,0.8009,0.8022,0.8024,0.8014,0.8034,0.8037,0.8051,0.8056,0.8049,0.805,0.8089,0.8089,0.809,0.8089,0,0,0,0,0,0,0.795,0.7955,0.7961,0.7976,0.7981,0.8004,0.8002,0.8004,0.8012,0.8012,0.8026,0.8028,0.8034,0.8049,0.8053,0.8058,0.8051,0.8088,0.8089,0.809,0.8089,0.8089,0.809,0,0,0,0,0,0.7948,0.796,0.7961,0.7966,0.7989,0.8004,0.8007,0.8014,0.8012,0.8018,0.8025,0.8027,0.8055,0.8051,0.8054,0.806,0.8088,0.8089,0.809,0.8088,0.8089,0.809,0,0,0,0,0,0,0.7945,0.7962,0.7964,0.7981,0.7991,0.8005,0.8013,0.8015,0.8026,0.8026,0.8033,0.8037,0.805,0.8057,0.8051,0.8074,0.8071,0.8073,0.8069,0.807,0.8071,0.8069,0.8052,0,0,0,0,0,0.7947,0.7959,0.7972,0.7986,0.7991,0.8001,0.8008,0.8012,0.8023,0.8027,0.8036,0.8046,0.8057,0.8064,0.8075,0.809,0.8092,0.8095,0.8096,0.8097,0.8098,0.8105,0.8106,0.8092,0.8092,0.8092,0,0,0.795,0.796,0.7967,0.7985,0.7994,0.8005,0.8005,0.8017,0.8025,0.8029,0.8043,0.805,0.8061,0.8076,0.8082,0.8081,0.8102,0.8097,0.8098,0.8099,0.8106,0.8107,0.8108,0.8093,0.8093,0.8093,0,0,0.7961,0.797,0.7982,0.7991,0.8004,0.801,0.8013,0.8026,0.8031,0.8045,0.8048,0.8057,0.8076,0.8084,0.8091,0.8103,0.8105,0.8106,0.811,0.8117,0.8118,0.8119,0.8123,0.8124,0.8107,0.8107,0.8107,0,0.7963,0.7981,0.7988,0.8,0.8007,0.8011,0.8023,0.8031,0.8046,0.8051,0.8049,0.8072,0.8081,0.8096,0.8099,0.8105,0.8107,0.8105,0.8117,0.8118,0.8119,0.8123,0.8124,0.8107,0.8107,0.8107,0.8107,0,0.7982,0.7994,0.8002,0.8017,0.8025,0.8036,0.8045,0.8052,0.8055,0.8061,0.8075,0.8085,0.8097,0.8101,0.8105,0.8117,0.8116,0.8116,0.8114,0.8121,0.8124,0.8126,0.8107,0.8107,0.8107,0.8107,0,0,0.7993,0.8011,0.8013,0.802,0.8034,0.8043,0.8054,0.8066,0.8072,0.8082,0.8091,0.8106,0.8106,0.8113,0.8117,0.8123,0.8132,0.8123,0.8123,0.8123,0.8145,0.8144,0.8146,0.8133,0.8133,0.8133,0.8144,0,0.8005,0.8025,0.8032,0.8049,0.8059,0.8063,0.8072,0.8081,0.8087,0.8096,0.8102,0.8113,0.8112,0.8116,0.8123,0.8129,0.8136,0.8129,0.814,0.8141,0.8137,0.8148,0.8148,0.8157,0.8145,0.8145,0.8145,0,0.8022,0.8033,0.8051,0.8062,0.8067,0.8075,0.8086,0.8095,0.8105,0.8109,0.8116,0.812,0.813,0.8127,0.8142,0.8136,0.8141,0.8145,0.8146,0.8147,0.8143,0.8149,0.816,0.8162,0.8148,0.8148,0.8147,0,0.8027,0.8046,0.8059,0.8064,0.8078,0.8084,0.809,0.8099,0.8106,0.8115,0.8119,0.813,0.8136,0.8143,0.8149,0.8146,0.8162,0.816,0.8165,0.8165,0.8168,0.8168,0.818,0.8172,0.8172,0.8172,0.8172,0,0.804,0.8051,0.8061,0.8069,0.8081,0.8087,0.8098,0.8104,0.8113,0.8121,0.8125,0.8132,0.814,0.8148,0.8153,0.8163,0.8166,0.8169,0.817,0.8168,0.8168,0.8171,0.8171,0.8172,0.8172,0.8172,0.8172,0,0.8048,0.8056,0.807,0.8081,0.8085,0.8092,0.8102,0.8109,0.8115,0.8126,0.8128,0.8137,0.8147,0.8153,0.8166,0.8169,0.818,0.8181,0.8177,0.8178,0.8182,0.8181,0.8197,0.8199,0.819,0.819,0.819,0,0.8056,0.8064,0.8076,0.8082,0.8088,0.8098,0.8105,0.8111,0.8118,0.8129,0.8135,0.8145,0.8153,0.8169,0.8176,0.8185,0.8186,0.8191,0.8188,0.8186,0.8186,0.8185,0.8185,0.8192,0.8192,0.8192,0.8192,0,0.8068,0.8071,0.8081,0.8091,0.8099,0.8108,0.8116,0.8121,0.8128,0.8135,0.8146,0.8152,0.8165,0.8175,0.8185,0.819,0.8192,0.8193,0.8194,0.8193,0.819,0.8191,0.8178,0.8192,0.8192,0.8192,0.8192,0.8192,0.8076,0.8083,0.8093,0.8103,0.811,0.8117,0.8124,0.8131,0.8139,0.815,0.8153,0.8164,0.8172,0.8186,0.8191,0.8199,0.8198,0.8201,0.8201,0.8202,0.8202,0.8189,0.8201,0.8201,0.8201,0.8201,0.8201,0,0.8088,0.8094,0.8103,0.8115,0.8123,0.8124,0.8133,0.8139,0.8149,0.8156,0.8165,0.8176,0.8185,0.8192,0.8202,0.8206,0.8207,0.8209,0.8208,0.8209,0.8202,0.8199,0.8208,0.8208,0.8208,0.8208,0.8208,0.8208,0.8095,0.8107,0.8111,0.8125,0.8131,0.8142,0.8147,0.8153,0.816,0.8172,0.818,0.8185,0.8192,0.8202,0.821,0.8212,0.8215,0.8216,0.8218,0.8211,0.821,0.8209,0.8207,0.8216,0.8216,0.8224,0.8224,0.8224]},{"header":{"parameterUnit":"m.s-1","parameterCategory":1,"la1":30.2991,"la2":30.254,"lo1":-89.0895,"lo2":-89.0444,"dy":0.0017,"dx":0.0017,"nx":28,"ny":28,"refTime":"2023-07-25T03:00:00:Z","depth":0,"parameterNumber":3,"parameterNumberName":"V-component_of_WINDS"},"data":[0,0,0,0,0,0,0,0,0,0,0,0,0,0,0,0,0,0,0,0,0,0,0,0,0,0,0,0,0,0,0,0,0,0,0,0,0,0,0,0,0,0,0,0,0,0,0,0,0,0,0,0,0,0,0,0,0,0,-1.8163,-1.8164,0,-1.8236,-1.8237,-1.8237,-1.825,-1.8249,-1.8249,-1.8248,-1.8323,-1.8325,-1.8328,0,0,0,0,0,0,0,0,0,0,0,0,0,-1.8034,-1.8036,-1.8163,-1.8164,-1.8164,-1.8236,-1.8237,-1.8238,-1.825,-1.8249,-1.8249,-1.8248,-1.8322,-1.8325,-1.8328,0,0,0,0,0,0,0,0,0,0,0,0,0,-1.8097,-1.8037,-1.8162,-1.8179,-1.8182,-1.8235,-1.8237,-1.8238,-1.825,-1.8249,-1.8248,-1.8248,-1.8321,-1.8324,-1.8328,-1.837,0,0,-1.834,-1.8342,0,0,0,0,0,0,0,0,-1.8093,-1.8101,-1.8176,-1.8178,-1.8181,-1.8233,-1.8218,-1.8282,-1.825,-1.8224,-1.8248,-1.8247,-1.8293,-1.8299,-1.8315,-1.8374,-1.8377,-1.834,-1.8343,-1.8344,-1.8345,0,0,0,0,0,0,0,-1.8089,-1.8098,-1.8192,-1.8177,-1.818,-1.8183,-1.8191,-1.8231,-1.8263,-1.8226,-1.8227,-1.8236,-1.8295,-1.8311,-1.8317,-1.8378,-1.834,-1.8343,-1.8346,-1.8347,-1.8475,-1.8476,0,0,0,0,0,0,-1.8081,-1.8095,-1.8189,-1.8194,-1.8134,-1.8186,-1.8195,-1.8217,-1.8263,-1.8269,-1.8237,-1.8236,-1.8305,-1.8312,-1.832,-1.8372,-1.8344,-1.8348,-1.835,-1.8474,-1.8475,-1.8476,0,0,0,0,0,0,-1.8079,-1.809,-1.8186,-1.8145,-1.8157,-1.8189,-1.8214,-1.8219,-1.8236,-1.827,-1.8276,-1.8248,-1.8305,-1.8314,-1.8358,-1.8374,-1.8349,-1.8353,-1.8472,-1.8474,-1.8476,-1.8476,0,0,0,0,0,0,-1.8075,-1.8089,-1.8105,-1.8145,-1.8159,-1.8223,-1.8215,-1.8221,-1.8242,-1.8243,-1.8283,-1.8288,-1.8305,-1.8352,-1.8361,-1.8379,-1.8356,-1.8471,-1.8473,-1.8475,-1.8475,-1.8478,-1.848,0,0,0,0,0,-1.807,-1.8102,-1.8106,-1.8117,-1.818,-1.8224,-1.8232,-1.8251,-1.8244,-1.826,-1.8283,-1.8287,-1.8371,-1.8356,-1.8367,-1.8386,-1.847,-1.8473,-1.8475,-1.8474,-1.8477,-1.848,0,0,0,0,0,0,-1.8063,-1.8108,-1.8112,-1.8158,-1.8187,-1.8226,-1.8248,-1.8254,-1.8286,-1.8284,-1.8306,-1.8315,-1.8357,-1.8376,-1.8359,-1.8429,-1.842,-1.8425,-1.8415,-1.8419,-1.8421,-1.8416,-1.8359,0,0,0,0,0,-1.8067,-1.8099,-1.8136,-1.8173,-1.8187,-1.8215,-1.8235,-1.8246,-1.8278,-1.829,-1.8315,-1.8345,-1.8379,-1.84,-1.8432,-1.8478,-1.8487,-1.8497,-1.8499,-1.8501,-1.8505,-1.853,-1.8535,-1.8484,-1.8484,-1.8484,0,0,-1.8075,-1.8103,-1.8122,-1.8172,-1.8196,-1.8228,-1.8225,-1.826,-1.8284,-1.8295,-1.8337,-1.8357,-1.8392,-1.8437,-1.8458,-1.8454,-1.8521,-1.8504,-1.8506,-1.8508,-1.8533,-1.8538,-1.8542,-1.8486,-1.8486,-1.8485,0,0,-1.8106,-1.8131,-1.8164,-1.8188,-1.8225,-1.8243,-1.8251,-1.829,-1.8303,-1.8346,-1.8355,-1.8385,-1.8441,-1.8466,-1.8486,-1.8527,-1.8532,-1.8537,-1.855,-1.8574,-1.8578,-1.8582,-1.8596,-1.8601,-1.854,-1.854,-1.854,0,-1.8111,-1.8161,-1.818,-1.8215,-1.8236,-1.8248,-1.8282,-1.8305,-1.835,-1.8365,-1.836,-1.8432,-1.8456,-1.8506,-1.8516,-1.8532,-1.8542,-1.8532,-1.8576,-1.858,-1.8584,-1.8598,-1.8603,-1.8541,-1.8541,-1.8541,-1.854,0,-1.8165,-1.8199,-1.8222,-1.8265,-1.829,-1.8323,-1.8348,-1.837,-1.838,-1.8399,-1.8443,-1.8473,-1.8511,-1.8524,-1.8534,-1.8576,-1.8573,-1.8572,-1.8563,-1.8589,-1.8602,-1.8607,-1.8541,-1.8541,-1.8541,-1.8541,0,0,-1.8193,-1.8248,-1.8255,-1.8275,-1.8317,-1.8343,-1.8378,-1.8416,-1.8434,-1.8465,-1.8495,-1.8543,-1.8542,-1.8565,-1.8578,-1.8599,-1.8629,-1.8596,-1.8597,-1.8601,-1.8677,-1.8677,-1.8683,-1.8633,-1.8635,-1.8635,-1.8674,0,-1.8229,-1.8291,-1.8309,-1.8361,-1.8393,-1.8405,-1.8435,-1.8464,-1.8482,-1.8512,-1.8532,-1.8566,-1.8563,-1.8577,-1.8599,-1.8621,-1.8645,-1.8619,-1.866,-1.8662,-1.8651,-1.869,-1.869,-1.8725,-1.8679,-1.868,-1.8681,0,-1.8278,-1.831,-1.8365,-1.8403,-1.8417,-1.8443,-1.848,-1.8508,-1.8541,-1.8553,-1.8578,-1.8589,-1.8626,-1.8615,-1.8665,-1.8647,-1.8665,-1.8679,-1.8681,-1.8685,-1.8672,-1.8694,-1.8736,-1.8741,-1.8689,-1.8689,-1.8688,0,-1.8293,-1.835,-1.839,-1.8406,-1.8451,-1.847,-1.8489,-1.8521,-1.8543,-1.8575,-1.8589,-1.8625,-1.8644,-1.8672,-1.8692,-1.8683,-1.874,-1.8732,-1.8751,-1.8751,-1.8762,-1.8761,-1.8807,-1.8775,-1.8775,-1.8775,-1.8775,0,-1.833,-1.8363,-1.8397,-1.8421,-1.8458,-1.848,-1.8516,-1.8537,-1.8565,-1.8594,-1.8607,-1.8633,-1.8659,-1.8689,-1.8706,-1.8745,-1.8753,-1.8764,-1.8768,-1.8762,-1.8761,-1.8774,-1.8772,-1.8776,-1.8776,-1.8776,-1.8775,0,-1.8352,-1.8376,-1.842,-1.846,-1.847,-1.8496,-1.8529,-1.8553,-1.8573,-1.8609,-1.8619,-1.8649,-1.8685,-1.8708,-1.8754,-1.8766,-1.8808,-1.8811,-1.8797,-1.8798,-1.8816,-1.8814,-1.8872,-1.8881,-1.8843,-1.8843,-1.8844,0,-1.8374,-1.84,-1.8442,-1.8462,-1.8481,-1.8514,-1.8536,-1.8559,-1.8581,-1.8621,-1.864,-1.8677,-1.8708,-1.8765,-1.8791,-1.8826,-1.883,-1.8848,-1.8836,-1.8829,-1.883,-1.8828,-1.8831,-1.885,-1.885,-1.885,-1.8851,0,-1.8411,-1.8421,-1.8453,-1.8489,-1.8515,-1.8544,-1.8573,-1.8589,-1.8617,-1.8642,-1.8679,-1.8703,-1.875,-1.8786,-1.8824,-1.8844,-1.8852,-1.8855,-1.8861,-1.8855,-1.8846,-1.8851,-1.8802,-1.8853,-1.8853,-1.8853,-1.8852,-1.8852,-1.8433,-1.8456,-1.8489,-1.8524,-1.8549,-1.8576,-1.86,-1.8623,-1.8654,-1.8694,-1.8706,-1.8745,-1.8777,-1.8828,-1.8849,-1.888,-1.8878,-1.8887,-1.8889,-1.8891,-1.8891,-1.8841,-1.8887,-1.8887,-1.8887,-1.8887,-1.8887,0,-1.847,-1.8492,-1.8523,-1.8564,-1.8591,-1.8597,-1.863,-1.8652,-1.8686,-1.8716,-1.8746,-1.8788,-1.8824,-1.8853,-1.8889,-1.8908,-1.8913,-1.8917,-1.8916,-1.892,-1.8891,-1.8881,-1.8913,-1.8913,-1.8913,-1.8913,-1.8913,-1.8913,-1.8492,-1.8531,-1.8546,-1.8598,-1.862,-1.8658,-1.8676,-1.8701,-1.8725,-1.8772,-1.8801,-1.882,-1.885,-1.8888,-1.8921,-1.8929,-1.8941,-1.8945,-1.8953,-1.8925,-1.8922,-1.8919,-1.8911,-1.8948,-1.8948,-1.898,-1.898,-1.898]}]]